This is the latest recevied weather packets stored in our database for station/object KD4EED. If no packets are shown the sender has not sent any weather packets the latest 10 day(s).
| Time | Temp. | Humidity | Pressure | Rain* | Wind** | Luminosity | Snow |
|---|---|---|---|---|---|---|---|
| 1777738248 | 16.11° C | 83% | 1012.8 hPa | - | - | 73 W/m² | - |
| 1777737946 | 16.11° C | 83% | 1012.6 hPa | - | - | 75 W/m² | - |
| 1777737644 | 16.11° C | 84% | 1012.8 hPa | - | - | 68 W/m² | - |
| 1777737342 | 16.11° C | 84% | 1012.6 hPa | - | - | 59 W/m² | - |
| 1777737039 | 16.11° C | 84% | 1012.9 hPa | - | - | 51 W/m² | - |
| 1777736734 | 16.11° C | 84% | 1012.6 hPa | - | - | 52 W/m² | - |
| 1777736101 | 16.11° C | 85% | 1012.5 hPa | - | - | 52 W/m² | - |
| 1777735797 | 16.11° C | 84% | 1012.6 hPa | - | - | 44 W/m² | - |
| 1777735495 | 15.56° C | 85% | 1012.5 hPa | - | - | 50 W/m² | - |
| 1777735193 | 15.56° C | 85% | 1012.5 hPa | - | - | 44 W/m² | - |
| 1777734889 | 15.56° C | 86% | 1012.3 hPa | - | - | 44 W/m² | - |
| 1777734587 | 15.56° C | 86% | 1012.3 hPa | - | - | 38 W/m² | - |
| 1777734284 | 15.56° C | 86% | 1012.3 hPa | - | - | 32 W/m² | - |
| 1777733980 | 15.56° C | 86% | 1012.1 hPa | - | - | 31 W/m² | - |
| 1777733677 | 15.56° C | 87% | 1012.2 hPa | - | - | 36 W/m² | - |
| 1777733373 | 15.56° C | 87% | 1012 hPa | - | - | 37 W/m² | - |
| 1777733070 | 15.56° C | 87% | 1012.3 hPa | - | - | 33 W/m² | - |
| 1777732766 | 15° C | 87% | 1012.3 hPa | - | - | 30 W/m² | - |
| 1777732463 | 15° C | 87% | 1012.3 hPa | - | - | 27 W/m² | - |
| 1777732161 | 15° C | 87% | 1012.5 hPa | - | - | 23 W/m² | - |
| 1777731857 | 15° C | 88% | 1012.3 hPa | - | - | 20 W/m² | - |
| 1777731554 | 15° C | 87% | 1012.3 hPa | - | - | 18 W/m² | - |
| 1777731252 | 15° C | 88% | 1012.1 hPa | - | - | 18 W/m² | - |
| 1777730949 | 15° C | 89% | 1012.1 hPa | - | - | 15 W/m² | - |
| 1777730648 | 15° C | 88% | 1012 hPa | - | - | 13 W/m² | - |
* Rain since midnight (hover to see other rain measurements)
** Current wind speed in m/s (hover to see current wind gust speed)